Date String (YYYY-MM-DD hh:mm:ss) UTC,Instrument flags,Ambient pressure (hPa),Sample flow (lpm),Bypass flow (lpm),Sample temperature (°C),Ambient temperature (°C),ASC tube jacket temperature (°C),LED temperature (°C),Box temperature (°C),Sample RH (%),Span deviation,Mass concentration (μg/m³),Mass concentration (μg/m³),Mass concentration (μg/m³)
DateTimeUTC,F1_M11,P_M11,Q1_M11,Q2_M11,T1_M11,T2_M11,T3_M11,T4_M11,T5_M11,U1_M11,ZSPAN_M11,X0_M11,X2_M11,X1_M11
2022-07-02 11:00:00,,0828.1,4.99,0.00,29.8,28.7,00.0,38.7,31.7,26.1,0000.0,0009.78,0004.77,0003.75
2022-07-02 11:01:00,,0828.1,5.02,0.00,29.8,28.7,00.0,38.7,31.7,26.1,0000.0,0009.90,0004.77,0003.73
2022-07-02 11:02:00,,0828.1,5.00,0.00,29.8,28.7,00.0,38.7,31.7,26.2,0000.0,0009.94,0004.76,0003.72
2022-07-02 11:03:00,,0828.1,5.00,0.00,29.8,28.7,00.0,38.7,31.7,26.3,0000.0,0009.75,0004.72,0003.72
2022-07-02 11:04:00,,0828.2,5.00,0.00,29.8,28.7,00.0,38.7,31.7,26.4,0000.0,0009.56,0004.71,0003.71
2022-07-02 11:05:00,,0828.2,5.00,0.00,29.9,28.7,00.0,38.7,31.7,26.3,0000.0,0009.79,0004.71,0003.71
2022-07-02 11:06:00,,0828.2,5.00,0.00,29.9,28.8,00.0,38.7,31.7,26.1,0000.0,0009.81,0004.69,0003.71
2022-07-02 11:07:00,,0828.2,5.00,0.00,29.9,28.8,00.0,38.7,31.7,26.4,0000.0,0009.74,0004.69,0003.71
2022-07-02 11:08:00,,0828.3,4.98,0.00,29.9,28.8,00.0,38.7,31.7,26.4,0000.0,0009.53,0004.65,0003.69
2022-07-02 11:09:00,,0828.2,5.00,0.00,29.9,28.8,00.0,38.7,31.7,26.4,0000.0,0009.22,0004.59,0003.67
2022-07-02 11:10:00,,0828.3,5.00,0.00,29.9,28.8,00.0,38.7,31.7,26.4,0000.0,0009.25,0004.60,0003.67
2022-07-02 11:11:00,,0828.4,5.00,0.00,29.9,28.8,00.0,38.7,31.7,26.4,0000.0,0009.15,0004.59,0003.65
2022-07-02 11:12:00,,0828.3,5.00,0.00,29.9,28.8,00.0,38.7,31.7,26.4,0000.0,0009.18,0004.55,0003.64
2022-07-02 11:13:00,,0828.3,5.00,0.00,29.8,28.8,00.0,38.7,31.7,26.4,0000.0,0009.20,0004.52,0003.64
2022-07-02 11:14:00,,0828.3,4.99,0.00,29.8,28.8,00.0,38.7,31.7,26.2,0000.0,0009.20,0004.52,0003.64
2022-07-02 11:15:00,,0828.3,4.99,0.00,29.8,28.8,00.0,38.7,31.7,25.9,0000.0,0009.12,0004.50,0003.64
2022-07-02 11:16:00,,0828.3,5.00,0.00,29.9,28.7,00.0,38.7,31.7,25.8,0000.0,0008.81,0004.48,0003.64
2022-07-02 11:17:00,,0828.3,5.00,0.00,29.9,28.8,00.0,38.7,31.7,26.0,0000.0,0008.84,0004.48,0003.63
2022-07-02 11:18:00,,0828.3,5.00,0.00,29.8,28.8,00.0,38.7,31.7,26.1,0000.0,0008.90,0004.48,0003.63
2022-07-02 11:19:00,,0828.3,5.00,0.00,29.8,28.8,00.0,38.7,31.7,26.0,0000.0,0008.96,0004.49,0003.63
2022-07-02 11:20:00,,0828.3,5.00,0.00,29.8,28.8,00.0,38.7,31.7,25.9,0000.0,0009.19,0004.52,0003.64
2022-07-02 11:21:00,,0828.3,5.00,0.00,29.8,28.8,00.0,38.7,31.7,26.0,0000.0,0009.16,0004.51,0003.64
2022-07-02 11:22:00,,0828.2,5.00,0.00,29.8,28.7,00.0,38.7,31.7,25.9,0000.0,0009.13,0004.50,0003.64
2022-07-02 11:23:00,,0828.3,5.01,0.00,29.8,28.7,00.0,38.7,31.7,25.9,0000.0,0008.78,0004.48,0003.63
2022-07-02 11:24:00,,0828.3,5.01,0.00,29.8,28.7,00.0,38.7,31.7,26.0,0000.0,0008.58,0004.46,0003.61
2022-07-02 11:25:00,,0828.3,5.00,0.00,29.8,28.7,00.0,38.7,31.6,26.1,0000.0,0008.56,0004.43,0003.60
2022-07-02 11:26:00,,0828.3,5.00,0.00,29.8,28.7,00.0,38.7,31.6,26.2,0000.0,0008.97,0004.44,0003.59
2022-07-02 11:27:00,,0828.4,5.00,0.00,29.8,28.7,00.0,38.7,31.6,26.2,0000.0,0008.95,0004.44,0003.59
2022-07-02 11:28:00,,0828.3,5.00,0.00,29.8,28.7,00.0,38.7,31.6,26.2,0000.0,0008.97,0004.44,0003.58
2022-07-02 11:29:00,,0828.4,5.01,0.00,29.8,28.7,00.0,38.7,31.6,26.1,0000.0,0008.92,0004.45,0003.58
2022-07-02 11:30:00,,0828.5,5.01,0.00,29.8,28.7,00.0,38.7,31.7,26.1,0000.0,0008.84,0004.42,0003.56
2022-07-02 11:31:00,,0828.4,5.00,0.00,29.8,28.7,00.0,38.7,31.7,26.1,0000.0,0008.62,0004.39,0003.56
2022-07-02 11:32:00,,0828.5,5.00,0.00,29.8,28.7,00.0,38.7,31.7,26.1,0000.0,0008.57,0004.37,0003.55
2022-07-02 11:33:00,,0828.4,4.99,0.00,29.8,28.7,00.0,38.7,31.7,26.0,0000.0,0008.81,0004.35,0003.55
2022-07-02 11:34:00,,0828.3,5.00,0.00,29.8,28.7,00.0,38.7,31.7,26.0,0000.0,0008.82,0004.33,0003.55
2022-07-02 11:35:00,,0828.4,4.99,0.00,29.8,28.8,00.0,38.7,31.7,26.0,0000.0,0008.83,0004.34,0003.55
2022-07-02 11:36:00,,0828.4,5.00,0.00,29.8,28.7,00.0,38.7,31.7,26.0,0000.0,0008.76,0004.34,0003.54
2022-07-02 11:37:00,,0828.5,4.99,0.00,29.8,28.7,00.0,38.7,31.7,26.0,0000.0,0008.27,0004.31,0003.54
2022-07-02 11:38:00,,0828.5,4.99,0.00,29.8,28.7,00.0,38.7,31.7,26.1,0000.0,0008.17,0004.29,0003.54
2022-07-02 11:39:00,,0828.5,5.00,0.00,29.8,28.7,00.0,38.7,31.7,26.0,0000.0,0008.18,0004.26,0003.54
2022-07-02 11:40:00,,0828.5,5.00,0.00,29.8,28.7,00.0,38.7,31.7,25.9,0000.0,0008.25,0004.25,0003.53
2022-07-02 11:41:00,,0828.5,5.00,0.00,29.8,28.7,00.0,38.7,31.7,25.8,0000.0,0008.17,0004.23,0003.53
2022-07-02 11:42:00,,0828.5,5.00,0.00,29.8,28.7,00.0,38.7,31.7,25.8,0000.0,0008.40,0004.24,0003.53
2022-07-02 11:43:00,,0828.4,5.00,0.00,29.8,28.7,00.0,38.7,31.7,25.8,0000.0,0008.51,0004.19,0003.51
2022-07-02 11:44:00,,0828.4,5.00,0.00,29.8,28.7,00.0,38.7,31.6,25.7,0000.0,0008.20,0004.19,0003.51
2022-07-02 11:45:00,,0828.4,5.00,0.00,29.8,28.7,00.0,38.7,31.6,25.7,0000.0,0008.16,0004.18,0003.50
2022-07-02 11:46:00,,0828.3,5.00,0.00,29.8,28.7,00.0,38.7,31.6,25.7,0000.0,0008.13,0004.18,0003.49
2022-07-02 11:47:00,,0828.4,5.00,0.00,29.8,28.7,00.0,38.7,31.6,25.6,0000.0,0008.14,0004.17,0003.49
2022-07-02 11:48:00,,0828.4,5.00,0.00,29.8,28.7,00.0,38.7,31.6,25.3,0000.0,0008.17,0004.17,0003.49
2022-07-02 11:49:00,,0828.4,5.00,0.00,29.8,28.7,00.0,38.7,31.6,25.1,0000.0,0008.09,0004.14,0003.48
2022-07-02 11:50:00,,0828.4,5.00,0.00,29.8,28.7,00.0,38.7,31.6,25.2,0000.0,0007.87,0004.11,0003.48
2022-07-02 11:51:00,,0828.3,5.00,0.00,29.8,28.6,00.0,38.7,31.6,25.2,0000.0,0007.78,0004.12,0003.48
2022-07-02 11:52:00,,0828.3,5.00,0.00,29.8,28.6,00.0,38.7,31.6,25.3,0000.0,0007.82,0004.16,0003.48
2022-07-02 11:53:00,,0828.3,5.00,0.00,29.8,28.6,00.0,38.7,31.6,25.5,0000.0,0007.72,0004.17,0003.48
2022-07-02 11:54:00,,0828.3,5.00,0.00,29.8,28.6,00.0,38.7,31.6,25.7,0000.0,0007.84,0004.16,0003.48
2022-07-02 11:55:00,,0828.3,4.99,0.00,29.8,28.6,00.0,38.7,31.6,25.4,0000.0,0007.89,0004.17,0003.48
2022-07-02 11:56:00,,0828.4,5.00,0.00,29.8,28.6,00.0,38.7,31.6,25.3,0000.0,0008.05,0004.18,0003.48
2022-07-02 11:57:00,,0828.4,5.00,0.00,29.8,28.6,00.0,38.7,31.6,25.3,0000.0,0008.84,0004.17,0003.48
2022-07-02 11:58:00,,0828.4,5.01,0.00,29.8,28.6,00.0,38.7,31.6,25.3,0000.0,0008.97,0004.19,0003.48
2022-07-02 11:59:00,,0828.4,4.99,0.00,29.8,28.6,00.0,38.7,31.6,25.1,0000.0,0009.00,0004.19,0003.46
